[[{"header":{"parameterUnit":"m.s-1","parameterCategory":1,"la1":30.2992,"la2":30.254,"lo1":-89.0895,"lo2":-89.0443,"dy":0.0025,"dx":0.0025,"nx":19,"ny":19,"refTime":"2026-04-09T09:00:00:Z","depth":0,"parameterNumber":2,"parameterNumberName":"U-component_of_WINDS"},"data":[0,0,0,-6.3349,-6.3354,-6.3522,-6.3523,-6.3786,-6.3789,0,0,0,0,0,0,0,0,0,0,0,-6.3329,-6.3332,-6.3349,-6.3354,-6.3522,-6.3523,-6.3785,-6.3789,0,0,0,0,0,0,0,0,0,0,0,-6.3328,-6.3331,-6.3335,-6.3355,-6.3522,-6.3523,-6.3785,-6.364,0,0,0,0,0,0,0,0,0,0,-6.3468,-6.348,-6.3331,-6.3335,-6.3356,-6.3522,-6.3523,-6.3633,-6.3649,-6.373,0,-6.3811,0,-6.3805,-6.381,-6.3811,0,0,0,-6.3331,-6.3466,-6.3484,-6.3336,-6.3358,-6.3522,-6.344,-6.3641,-6.3661,-6.3753,-6.3814,-6.3823,-6.3809,-6.3811,-6.3813,-6.4356,-6.436,0,0,-6.3322,-6.3376,-6.3471,-6.3498,-6.3476,-6.3435,-6.3446,-6.3652,-6.3723,-6.3815,-6.3828,-6.3813,-6.3814,-6.3816,-6.4353,-6.4357,0,0,0,-6.3311,-6.337,-6.3382,-6.3489,-6.3516,-6.344,-6.3453,-6.3713,-6.3713,-6.3831,-6.3816,-6.3815,-6.3819,-6.4349,-6.4354,-6.4583,0,0,0,-6.3304,-6.3363,-6.3379,-6.3414,-6.3513,-6.3617,-6.351,-6.3698,-6.372,-6.3815,-6.3815,-6.3822,-6.4345,-6.4352,-6.4568,-6.4682,0,0,0,-6.3308,-6.3363,-6.3398,-6.3417,-6.3491,-6.3612,-6.3623,-6.3702,-6.3713,-6.3811,-6.3823,-6.4342,-6.435,-6.4555,-6.466,-6.484,0,0,0,-6.3328,-6.36,-6.3403,-6.3701,-6.349,-6.3753,-6.3621,-6.3814,-6.3926,-6.3817,-6.4345,-6.4354,-6.4551,-6.4647,-6.4826,-6.5,-6.5078,0,0,-6.3701,-6.3647,-6.3818,-6.3646,-6.3959,-6.3723,-6.4068,-6.412,-6.408,-6.4266,-6.4279,-6.4573,-6.4659,-6.4837,-6.5497,-6.5559,0,0,0,-6.3955,-6.4078,-6.4149,-6.4258,-6.4304,-6.4352,-6.4345,-6.4364,-6.4519,-6.4187,-6.4685,-6.4735,-6.4837,-6.4917,-6.497,-6.5054,-6.4394,-6.4393,-6.4392,-6.456,-6.4494,-6.4772,-6.4727,-6.4834,-6.4824,-6.4904,-6.4927,-6.483,-6.4949,-6.5003,-6.5412,-6.5508,-6.5548,-6.5636,-6.5091,-6.5092,-6.5092,-6.5093,-6.5099,-6.5263,-6.5127,-6.5348,-6.5277,-6.5461,-6.5461,-6.5386,-6.5547,-6.5366,-6.5452,-6.526,-6.5618,-6.5691,-6.511,-6.5107,-6.5105,-6.5103,-6.5102,-6.5487,-6.5553,-6.5572,-6.5722,-6.5844,-6.5788,-6.5949,-6.5878,-6.5813,-6.5899,-6.5948,-6.5944,-6.5929,-6.5927,-6.5929,-6.593,-6.5931,-6.5932,-6.5933,-6.5881,-6.5894,-6.6038,-6.611,-6.6169,-6.6239,-6.6231,-6.6288,-6.6332,-6.6268,-6.6268,-6.6158,-6.5666,-6.5543,-6.5955,-6.5951,-6.5948,-6.5946,-6.5945,-6.645,-6.631,-6.6533,-6.6593,-6.667,-6.6795,-6.6703,-6.6825,-6.6861,-6.6942,-6.6814,-6.6462,-6.6402,-6.6359,-6.6256,-6.6828,-6.6828,-6.6828,-6.6828,-6.6776,-6.6738,-6.6949,-6.705,-6.714,-6.7079,-6.7332,-6.7328,-6.7302,-6.732,-6.7227,-6.7086,-6.7045,-6.7008,-6.6952,-6.6855,-6.7566,-6.7567,-6.7567,-6.7121,-6.7089,-6.7318,-6.729,-6.7345,-6.7394,-6.7628,-6.7748,-6.7689,-6.7596,-6.7332,-6.7301,-6.7072,-6.7001,-6.6901,-6.6814,-6.6635,0,0]},{"header":{"parameterUnit":"m.s-1","parameterCategory":1,"la1":30.2992,"la2":30.254,"lo1":-89.0895,"lo2":-89.0443,"dy":0.0025,"dx":0.0025,"nx":19,"ny":19,"refTime":"2026-04-09T09:00:00:Z","depth":0,"parameterNumber":3,"parameterNumberName":"V-component_of_WINDS"},"data":[0,0,0,-0.146,-0.146,-0.1439,-0.1439,-0.1406,-0.1406,0,0,0,0,0,0,0,0,0,0,0,-0.1463,-0.1462,-0.146,-0.146,-0.1439,-0.1439,-0.1406,-0.1406,0,0,0,0,0,0,0,0,0,0,0,-0.1463,-0.1462,-0.1462,-0.146,-0.1439,-0.1439,-0.1406,-0.1424,0,0,0,0,0,0,0,0,0,0,-0.1445,-0.1444,-0.1463,-0.1462,-0.146,-0.1439,-0.1439,-0.1425,-0.1423,-0.1412,0,-0.1403,0,-0.1403,-0.1403,-0.1403,0,0,0,-0.1462,-0.1446,-0.1443,-0.1462,-0.1459,-0.1439,-0.1449,-0.1424,-0.1421,-0.1409,-0.1402,-0.1401,-0.1403,-0.1403,-0.1403,-0.1333,-0.1333,0,0,-0.1464,-0.1457,-0.1445,-0.1442,-0.1445,-0.145,-0.1449,-0.1422,-0.1414,-0.1402,-0.14,-0.1402,-0.1402,-0.1402,-0.1334,-0.1333,0,0,0,-0.1465,-0.1458,-0.1456,-0.1443,-0.144,-0.1449,-0.1448,-0.1415,-0.1415,-0.14,-0.1402,-0.1402,-0.1402,-0.1334,-0.1333,-0.1305,0,0,0,-0.1466,-0.1459,-0.1457,-0.1453,-0.144,-0.1427,-0.1441,-0.1417,-0.1414,-0.1402,-0.1402,-0.1401,-0.1335,-0.1334,-0.1307,-0.1292,0,0,0,-0.1465,-0.1459,-0.1454,-0.1452,-0.1443,-0.1428,-0.1427,-0.1417,-0.1415,-0.1403,-0.1401,-0.1335,-0.1334,-0.1308,-0.1295,-0.1271,0,0,0,-0.1463,-0.143,-0.1454,-0.1418,-0.1443,-0.1411,-0.1427,-0.1403,-0.1389,-0.1402,-0.1335,-0.1333,-0.1309,-0.1297,-0.1273,-0.125,-0.124,0,0,-0.1418,-0.1424,-0.1403,-0.1424,-0.1385,-0.1414,-0.1371,-0.1364,-0.1369,-0.1344,-0.1343,-0.1306,-0.1295,-0.1272,-0.1187,-0.1179,0,0,0,-0.1387,-0.1372,-0.1363,-0.1349,-0.1343,-0.1336,-0.1336,-0.1333,-0.1313,-0.1355,-0.1291,-0.1285,-0.1272,-0.1261,-0.1254,-0.1242,-0.1328,-0.1329,-0.1329,-0.1314,-0.1321,-0.1286,-0.1291,-0.1277,-0.1277,-0.1266,-0.1262,-0.1274,-0.1258,-0.1251,-0.1199,-0.1186,-0.1181,-0.1169,-0.124,-0.124,-0.124,-0.124,-0.1248,-0.1227,-0.1242,-0.1214,-0.1221,-0.1197,-0.1195,-0.1204,-0.1182,-0.1205,-0.1194,-0.1218,-0.1172,-0.1161,-0.1238,-0.1238,-0.1238,-0.1238,-0.1239,-0.1201,-0.1192,-0.1189,-0.1168,-0.1151,-0.1156,-0.1134,-0.1142,-0.1149,-0.1137,-0.113,-0.113,-0.1131,-0.1133,-0.1133,-0.1133,-0.1133,-0.1132,-0.1132,-0.1153,-0.115,-0.1131,-0.112,-0.1111,-0.11,-0.1099,-0.109,-0.1082,-0.1089,-0.1089,-0.1102,-0.1166,-0.1182,-0.113,-0.113,-0.113,-0.1131,-0.1131,-0.1083,-0.11,-0.107,-0.1061,-0.1048,-0.1029,-0.1039,-0.102,-0.1014,-0.1002,-0.1017,-0.1063,-0.1071,-0.1076,-0.1089,-0.1016,-0.1016,-0.1016,-0.1016,-0.1043,-0.1047,-0.1017,-0.1002,-0.0988,-0.0993,-0.0957,-0.0955,-0.0955,-0.0951,-0.0962,-0.098,-0.0986,-0.099,-0.0997,-0.101,-0.0918,-0.0917,-0.0917,-0.1,-0.1003,-0.0972,-0.0972,-0.0961,-0.0952,-0.0918,-0.0899,-0.0903,-0.0913,-0.0948,-0.0952,-0.0981,-0.099,-0.1002,-0.1014,-0.1036,0,0]}]]